Flag Weather past 2 weeks in Zürich, Zurich, Switzerland

Now
51 °F

Cool.


Feels Like: 51 °F
Forecast: 44 / 63 °F
Wind: 2 mph from West

Location: Zurich Town / Ville.

Current Time: Oct 31, 2014 at 12:43:31 PM

Latest Report: Oct 31, 2014 at 12:00 PM


Visibility: N/A

Pressure: 30.34 "Hg

Humidity: 80%

Dew point: 45 °F

Location of ZürichLocation

Historic Weather in Zürich — Graph

°F

Zürich temperature yesterday

Maximum temperature yesterday: 58 °F (at 4:00 PM)
Minimum temperature yesterday: 47 °F (at 11:00 PM)
Average temperature yesterday: 50 °F

Past Weeks' High & Low Weather Summary

 TemperatureHumidityPressure
High70 °F (Oct 19, 4:00 PM)100% (Oct 18, 6:00 AM)30.36 "Hg (Oct 18, 6:00 AM)
Low37 °F (Oct 24, 5:00 AM)52% (Oct 30, 4:00 PM)29.74 "Hg (Oct 21, 7:00 PM)
Average51 °F85%30.17 "Hg
* Reported Oct 16 12:00 Noon — Oct 31 11:00 AM, Zürich, Weather by CustomWeather, © 2014

Note: Actual official high and low records may vary slightly from our data, if they occured in-between our weather recording intervals... More about our weather records

Advertising

Zürich weather history for previous 24 hours

 ConditionsComfort  
Time TempWeatherWind HumidityBarometerVisibility
11:00 AM
Oct 31
51 °FCool.2 mph83%30.34 "HgN/A
10:00 AM48 °FCool.2 mph86%30.35 "HgN/A
9:00 AM46 °FCool.1 mph88%30.35 "HgN/A
8:00 AM43 °FQuite cool.3 mph93%30.36 "HgN/A
7:00 AM42 °FQuite cool.1 mph93%30.34 "HgN/A
6:00 AM43 °FQuite cool.1 mph92%30.34 "HgN/A
5:00 AM43 °FQuite cool.2 mph92%30.34 "HgN/A
4:00 AM44 °FQuite cool.3 mph92%30.34 "HgN/A
3:00 AM44 °FQuite cool.5 mph88%30.34 "HgN/A
2:00 AM44 °FQuite cool.1 mph87%30.34 "HgN/A
1:00 AM44 °FQuite cool.3 mph89%30.34 "HgN/A
12:00 AM46 °FCool.5 mph86%30.34 "HgN/A
11:00 PM
Oct 30
47 °FCool.1 mph91%30.33 "HgN/A
10:00 PM47 °FCool.1 mph87%30.33 "HgN/A
9:00 PM48 °FCool.2 mph87%30.33 "HgN/A
8:00 PM49 °FCool.No wind90%30.32 "HgN/A
7:00 PM50 °FCool.2 mph88%30.31 "HgN/A
6:00 PM50 °FCool.2 mph87%30.30 "HgN/A
5:00 PM55 °FCool.1 mph70%30.27 "HgN/A
4:00 PM58 °FRefreshingly cool.2 mph52%30.24 "HgN/A
3:00 PM58 °FRefreshingly cool.3 mph58%30.24 "HgN/A
2:00 PM58 °FRefreshingly cool.2 mph58%30.24 "HgN/A
1:00 PM56 °FPartly sunny.2 mph67%30.26 "HgN/A
12:00 PM53 °FCool.3 mph71%30.28 "HgN/A
Weather by CustomWeather, © 2014

See weather overviewHow to use our weather pages